User: anonymous   Login
Location: Bismarck
(46.7731°N, 100.8200°W)
Time: 01:18:15
(UTC-05:00)
Language:

Landsat 7 - Orbit

View from above orbital plane
View from above orbital plane
View from above satellite
View from above satellite

Ground track
Ground track

The orbit data is extracted from the following two-line orbital elements,

1 25682U 99020A   17081.67060356 +.00000037 +00000-0 +18300-4 0  9999
2 25682 098.2179 154.0010 0000752 069.3316 290.7957 14.57107140953998
Epoch (UTC): 22 March 2017 16:05:40
Eccentricity: 0.0000752
inclination: 98.2179°
perigee height: 702 km
apogee height: 703 km
right ascension of ascending node: 154.0010°
argument of perigee: 69.3316°
revolutions per day: 14.57107140
mean anomaly at epoch: 290.7957°
orbit number at epoch: 95399

The dashed part of the orbit path shows where the satellite is in the earth's shadow,  

DLR